Weather in Andryushkino

Russia / Sakha (Yakutia) Republic     69°10′21″N   154°26′41″E
temp.,
°C
wind,
m/s
gust,
m/s
humid.,
%
clouds,
%
prec.,
mm/h
press.,
hPa
HPBL,
m
29 september, wed
wed2923:00−7nnw5127944 0.0 1011248
02:00−8nnw47805 0.0 1012113
05:00−9nnw34805 0.0 101455
08:00−8nnw347858 0.0 101569
11:00−4nw4668100 0.0 1015316
14:00−2nw577399 0.0 1015682
17:00−2nnw5108986 0.3 1017550
20:00−5nnw49945 0.0 1019158
30 september, thu
thu3023:00−7nnw47935 0.0 1021103
02:00−7nnw34935 0.0 102353
05:00−8nnw33916 0.0 102422
08:00−7wnw22915 0.0 102520
11:00−4w22755 0.0 1026266
14:00−2wsw11655 0.0 1026641
17:00−3s11715 0.0 102610
20:00−6se22835 0.0 102616
1 october, fri
fri123:00−7se34905 0.0 102648
02:00−7se45935 0.0 102477
05:00−8ese48935 0.0 1023126
08:00−9ese510915 0.0 1022212
11:00−5ese610685 0.0 1020338
14:00−4ese69605 0.0 1018396
17:00−6e611785 0.0 1016286
20:00−9e6128921 0.0 1015231
2 october, sat
sat223:00−9e51088100 0.0 1013183
02:00−10e498660 0.0 1011156
05:00−10e5983100 0.0 1009155
08:00−10ene488087 0.0 1008154
11:00−6e466591 0.0 1006244
14:00−5ene4591100 0.4 1005236
17:00−5ne239595 1.1 1005137
20:00−6n2297100 0.3 100531
3 october, sun
sun323:00−8wnw339789 0.3 100556
02:00−8w369457 0.0 1006128
05:00−9w3684100 0.0 1006205
08:00−9wnw3591100 0.2 1008172
11:00−7wnw5676100 0.2 1009266
14:00−5wnw567292 0.0 1010359
17:00−6wnw378473 0.0 1011162
20:00−9w37955 0.0 1013104